Year,Month,Day,Hour,Minute,Value (Times are PST for temperature in C)
2017,07,18,00,00,15.90
2017,07,18,00,01,15.90
2017,07,18,00,02,15.90
2017,07,18,00,03,15.90
2017,07,18,00,04,16.00
2017,07,18,00,05,16.00
2017,07,18,00,06,16.00
2017,07,18,00,07,16.00
2017,07,18,00,08,16.00
2017,07,18,00,09,16.00
2017,07,18,00,10,16.00
2017,07,18,00,11,16.00
2017,07,18,00,12,16.00
2017,07,18,00,13,16.00
2017,07,18,00,14,16.00
2017,07,18,00,15,15.90
2017,07,18,00,16,15.90
2017,07,18,00,17,15.90
2017,07,18,00,18,15.90
2017,07,18,00,19,15.90
2017,07,18,00,20,15.90
2017,07,18,00,21,15.80
2017,07,18,00,22,15.80
2017,07,18,00,23,15.80
2017,07,18,00,24,15.80
2017,07,18,00,25,15.80
2017,07,18,00,26,15.80
2017,07,18,00,27,15.80
2017,07,18,00,28,15.80
2017,07,18,00,29,15.80
2017,07,18,00,30,15.90
2017,07,18,00,31,15.90
2017,07,18,00,32,15.90
2017,07,18,00,33,15.90
2017,07,18,00,34,15.90
2017,07,18,00,35,15.90
2017,07,18,00,36,15.90
2017,07,18,00,37,15.90
2017,07,18,00,38,15.90
2017,07,18,00,39,16.00
2017,07,18,00,40,16.00
2017,07,18,00,41,16.00
2017,07,18,00,42,16.00
2017,07,18,00,43,16.00
2017,07,18,00,44,16.00
2017,07,18,00,45,16.00
2017,07,18,00,46,16.10
2017,07,18,00,47,16.00
2017,07,18,00,48,16.00
2017,07,18,00,49,16.00
2017,07,18,00,50,15.90
2017,07,18,00,51,15.90
2017,07,18,00,52,15.80
2017,07,18,00,53,15.80
2017,07,18,00,54,15.80
2017,07,18,00,55,15.70
2017,07,18,00,56,15.70
2017,07,18,00,57,15.70
2017,07,18,00,58,15.60
2017,07,18,00,59,15.60
2017,07,18,01,00,15.60
2017,07,18,01,01,15.60
2017,07,18,01,02,15.50
2017,07,18,01,03,15.50
2017,07,18,01,04,15.40
2017,07,18,01,05,15.40
2017,07,18,01,06,15.40
2017,07,18,01,07,15.40
2017,07,18,01,08,15.30
2017,07,18,01,09,15.30
2017,07,18,01,10,15.30
2017,07,18,01,11,15.30
2017,07,18,01,12,15.20
2017,07,18,01,13,15.20
2017,07,18,01,14,15.20
2017,07,18,01,15,15.20
2017,07,18,01,16,15.10
2017,07,18,01,17,15.10
2017,07,18,01,18,15.10
2017,07,18,01,19,15.10
2017,07,18,01,20,15.10
2017,07,18,01,21,15.00
2017,07,18,01,22,15.00
2017,07,18,01,23,15.00
2017,07,18,01,24,15.00
2017,07,18,01,25,14.90
2017,07,18,01,26,14.90
2017,07,18,01,27,14.90
2017,07,18,01,28,14.90
2017,07,18,01,29,14.90
2017,07,18,01,30,14.90
2017,07,18,01,31,14.80
2017,07,18,01,32,14.80
2017,07,18,01,33,14.80
2017,07,18,01,34,14.80
2017,07,18,01,35,14.70
2017,07,18,01,36,14.70
2017,07,18,01,37,14.70
2017,07,18,01,38,14.70
2017,07,18,01,39,14.60
2017,07,18,01,40,14.60
2017,07,18,01,41,14.60
2017,07,18,01,42,14.50
2017,07,18,01,43,14.40
2017,07,18,01,44,14.40
2017,07,18,01,45,14.40
2017,07,18,01,46,14.40
2017,07,18,01,47,14.30
2017,07,18,01,48,14.30
2017,07,18,01,49,14.30
2017,07,18,01,50,14.30
2017,07,18,01,51,14.30
2017,07,18,01,52,14.30
2017,07,18,01,53,14.30
2017,07,18,01,54,14.30
2017,07,18,01,55,14.30
2017,07,18,01,56,14.20
2017,07,18,01,57,14.20
2017,07,18,01,58,14.20
2017,07,18,01,59,14.20
2017,07,18,02,00,14.20
2017,07,18,02,01,14.20
2017,07,18,02,02,14.20
2017,07,18,02,03,14.20
2017,07,18,02,04,14.20
2017,07,18,02,05,14.20
2017,07,18,02,06,14.30
2017,07,18,02,07,14.30
2017,07,18,02,08,14.30
2017,07,18,02,09,14.30
2017,07,18,02,10,14.30
2017,07,18,02,11,14.30
2017,07,18,02,12,14.30
2017,07,18,02,13,14.30
2017,07,18,02,14,14.30
2017,07,18,02,15,14.30
2017,07,18,02,16,14.40
2017,07,18,02,17,14.40
2017,07,18,02,18,14.40
2017,07,18,02,19,14.40
2017,07,18,02,20,14.40
2017,07,18,02,21,14.40
2017,07,18,02,22,14.30
2017,07,18,02,23,14.30
2017,07,18,02,24,14.30
2017,07,18,02,25,14.30
2017,07,18,02,26,14.30
2017,07,18,02,27,14.30
2017,07,18,02,28,14.30
2017,07,18,02,29,14.30
2017,07,18,02,30,14.30
2017,07,18,02,31,14.30
2017,07,18,02,32,14.30
2017,07,18,02,33,14.30
2017,07,18,02,34,14.30
2017,07,18,02,35,14.30
2017,07,18,02,36,14.30
2017,07,18,02,37,14.30
2017,07,18,02,38,14.30
2017,07,18,02,39,14.30
2017,07,18,02,40,14.30
2017,07,18,02,41,14.20
2017,07,18,02,42,14.20
2017,07,18,02,43,14.20
2017,07,18,02,44,14.20
2017,07,18,02,45,14.20
2017,07,18,02,46,14.20
2017,07,18,02,47,14.20
2017,07,18,02,48,14.20
2017,07,18,02,49,14.10
2017,07,18,02,50,14.10
2017,07,18,02,51,14.10
2017,07,18,02,52,14.10
2017,07,18,02,53,14.10
2017,07,18,02,54,14.10
2017,07,18,02,55,14.10
2017,07,18,02,56,14.00
2017,07,18,02,57,14.00
2017,07,18,02,58,14.00
2017,07,18,02,59,14.00
2017,07,18,03,00,13.90
2017,07,18,03,01,13.90
2017,07,18,03,02,13.90
2017,07,18,03,03,13.90
2017,07,18,03,04,13.90
2017,07,18,03,05,13.80
2017,07,18,03,06,13.80
2017,07,18,03,07,13.80
2017,07,18,03,08,13.80
2017,07,18,03,09,13.70
2017,07,18,03,10,13.70
2017,07,18,03,11,13.70
2017,07,18,03,12,13.60
2017,07,18,03,13,13.60
2017,07,18,03,14,13.50
2017,07,18,03,15,13.50
2017,07,18,03,16,13.50
2017,07,18,03,17,13.40
2017,07,18,03,18,13.40
2017,07,18,03,19,13.40
2017,07,18,03,20,13.40
2017,07,18,03,21,13.40
2017,07,18,03,22,13.30
2017,07,18,03,23,13.30
2017,07,18,03,24,13.30
2017,07,18,03,25,13.30
2017,07,18,03,26,13.30
2017,07,18,03,27,13.30
2017,07,18,03,28,13.20
2017,07,18,03,29,13.20
2017,07,18,03,30,13.20
2017,07,18,03,31,13.20
2017,07,18,03,32,13.20
2017,07,18,03,33,13.20
2017,07,18,03,34,13.10
2017,07,18,03,35,13.10
2017,07,18,03,36,13.10
2017,07,18,03,37,13.10
2017,07,18,03,38,13.10
2017,07,18,03,39,13.00
2017,07,18,03,40,13.00
2017,07,18,03,41,13.00
2017,07,18,03,42,13.00
2017,07,18,03,43,13.00
2017,07,18,03,44,12.90
2017,07,18,03,45,12.90
2017,07,18,03,46,12.90
2017,07,18,03,47,12.90
2017,07,18,03,48,12.90
2017,07,18,03,49,12.80
2017,07,18,03,50,12.80
2017,07,18,03,51,12.80
2017,07,18,03,52,12.80
2017,07,18,03,53,12.80
2017,07,18,03,54,12.70
2017,07,18,03,55,12.70
2017,07,18,03,56,12.70
2017,07,18,03,57,12.70
2017,07,18,03,58,12.70
2017,07,18,03,59,12.70
2017,07,18,04,00,12.70
2017,07,18,04,01,12.70
2017,07,18,04,02,12.60
2017,07,18,04,03,12.60
2017,07,18,04,04,12.60
2017,07,18,04,05,12.60
2017,07,18,04,06,12.60
2017,07,18,04,07,12.60
2017,07,18,04,08,12.60
2017,07,18,04,09,12.60
2017,07,18,04,10,12.60
2017,07,18,04,11,12.60
2017,07,18,04,12,12.50
2017,07,18,04,13,12.50
2017,07,18,04,14,12.50
2017,07,18,04,15,12.50
2017,07,18,04,16,12.50
2017,07,18,04,17,12.50
2017,07,18,04,18,12.40
2017,07,18,04,19,12.40
2017,07,18,04,20,12.40
2017,07,18,04,21,12.40
2017,07,18,04,22,12.40
2017,07,18,04,23,12.40
2017,07,18,04,24,12.40
2017,07,18,04,25,12.30
2017,07,18,04,26,12.30
2017,07,18,04,27,12.30
2017,07,18,04,28,12.30
2017,07,18,04,29,12.30
2017,07,18,04,30,12.20
2017,07,18,04,31,12.20
2017,07,18,04,32,12.20
2017,07,18,04,33,12.20
2017,07,18,04,34,12.20
2017,07,18,04,35,12.20
2017,07,18,04,36,12.20
2017,07,18,04,37,12.20
2017,07,18,04,38,12.20
2017,07,18,04,39,12.20
2017,07,18,04,40,12.20
2017,07,18,04,41,12.20
2017,07,18,04,42,12.20
2017,07,18,04,43,12.20
2017,07,18,04,44,12.20
2017,07,18,04,45,12.20
2017,07,18,04,46,12.20
2017,07,18,04,47,12.20
2017,07,18,04,48,12.10
2017,07,18,04,49,12.10
2017,07,18,04,50,12.10
2017,07,18,04,51,12.10
2017,07,18,04,52,12.10
2017,07,18,04,53,12.10
2017,07,18,04,54,12.00
2017,07,18,04,55,12.00
2017,07,18,04,56,12.00
2017,07,18,04,57,12.00
2017,07,18,04,58,12.00
2017,07,18,04,59,12.00
2017,07,18,05,00,12.00
2017,07,18,05,01,12.00
2017,07,18,05,02,12.00
2017,07,18,05,03,12.10
2017,07,18,05,04,12.10
2017,07,18,05,05,12.10
2017,07,18,05,06,12.10
2017,07,18,05,07,12.10
2017,07,18,05,08,12.10
2017,07,18,05,09,12.10
2017,07,18,05,10,12.10
2017,07,18,05,11,12.10
2017,07,18,05,12,12.10
2017,07,18,05,13,12.10
2017,07,18,05,14,12.10
2017,07,18,05,15,12.10
2017,07,18,05,16,12.10
2017,07,18,05,17,12.10
2017,07,18,05,18,12.00
2017,07,18,05,19,12.00
2017,07,18,05,20,12.00
2017,07,18,05,21,11.90
2017,07,18,05,22,11.90
2017,07,18,05,23,11.90
2017,07,18,05,24,11.90
2017,07,18,05,25,11.90
2017,07,18,05,26,11.90
2017,07,18,05,27,11.90
2017,07,18,05,28,11.80
2017,07,18,05,29,11.80
2017,07,18,05,30,11.80
2017,07,18,05,31,11.80
2017,07,18,05,32,11.80
2017,07,18,05,33,11.80
2017,07,18,05,34,11.80
2017,07,18,05,35,11.80
2017,07,18,05,36,11.80
2017,07,18,05,37,11.80
2017,07,18,05,38,11.80
2017,07,18,05,39,11.70
2017,07,18,05,40,11.70
2017,07,18,05,41,11.70
2017,07,18,05,42,11.70
2017,07,18,05,43,11.70
2017,07,18,05,44,11.60
2017,07,18,05,45,11.60
2017,07,18,05,46,11.60
2017,07,18,05,47,11.60
2017,07,18,05,48,11.60
2017,07,18,05,49,11.50
2017,07,18,05,50,11.50
2017,07,18,05,51,11.40
2017,07,18,05,52,11.40
2017,07,18,05,53,11.40
2017,07,18,05,54,11.40
2017,07,18,05,55,11.40
2017,07,18,05,56,11.40
2017,07,18,05,57,11.40
2017,07,18,05,58,11.40
2017,07,18,05,59,11.40
2017,07,18,06,00,11.30
2017,07,18,06,01,11.30
2017,07,18,06,02,11.30
2017,07,18,06,03,11.30
2017,07,18,06,04,11.30
2017,07,18,06,05,11.30
2017,07,18,06,06,11.30
2017,07,18,06,07,11.30
2017,07,18,06,08,11.30
2017,07,18,06,09,11.20
2017,07,18,06,10,11.20
2017,07,18,06,11,11.20
2017,07,18,06,12,11.20
2017,07,18,06,13,11.20
2017,07,18,06,14,11.20
2017,07,18,06,15,11.20
2017,07,18,06,16,11.20
2017,07,18,06,17,11.20
2017,07,18,06,18,11.20
2017,07,18,06,19,11.20
2017,07,18,06,20,11.20
2017,07,18,06,21,11.20
2017,07,18,06,22,11.20
2017,07,18,06,23,11.10
2017,07,18,06,24,11.10
2017,07,18,06,25,11.10
2017,07,18,06,26,11.10
2017,07,18,06,27,11.10
2017,07,18,06,28,11.10
2017,07,18,06,29,11.10
2017,07,18,06,30,11.10
2017,07,18,06,31,11.10
2017,07,18,06,32,11.10
2017,07,18,06,33,11.10
2017,07,18,06,34,11.10
2017,07,18,06,35,11.10
2017,07,18,06,36,11.10
2017,07,18,06,37,11.10
2017,07,18,06,38,11.10
2017,07,18,06,39,11.10
2017,07,18,06,40,11.10
2017,07,18,06,41,11.20
2017,07,18,06,42,11.20
2017,07,18,06,43,11.20
2017,07,18,06,44,11.20
2017,07,18,06,45,11.30
2017,07,18,06,46,11.30
2017,07,18,06,47,11.30
2017,07,18,06,48,11.30
2017,07,18,06,49,11.40
2017,07,18,06,50,11.40
2017,07,18,06,51,11.50
2017,07,18,06,52,11.50
2017,07,18,06,53,11.60
2017,07,18,06,54,11.70
2017,07,18,06,55,11.80
2017,07,18,06,56,11.80
2017,07,18,06,57,11.90
2017,07,18,06,58,12.00
2017,07,18,06,59,12.10
2017,07,18,07,00,12.20
2017,07,18,07,01,12.30
2017,07,18,07,02,12.30
2017,07,18,07,03,12.50
2017,07,18,07,04,12.60
2017,07,18,07,05,12.70
2017,07,18,07,06,12.80
2017,07,18,07,07,12.80
2017,07,18,07,08,12.90
2017,07,18,07,09,13.00
2017,07,18,07,10,13.10
2017,07,18,07,11,13.10
2017,07,18,07,12,13.20
2017,07,18,07,13,13.20
2017,07,18,07,14,13.30
2017,07,18,07,15,13.30
2017,07,18,07,16,13.40
2017,07,18,07,17,13.40
2017,07,18,07,18,13.50
2017,07,18,07,19,13.60
2017,07,18,07,20,13.60
2017,07,18,07,21,13.60
2017,07,18,07,22,13.70
2017,07,18,07,23,13.70
2017,07,18,07,24,13.70
2017,07,18,07,25,13.70
2017,07,18,07,26,13.70
2017,07,18,07,27,13.70
2017,07,18,07,28,13.70
2017,07,18,07,29,13.70
2017,07,18,07,30,13.70
2017,07,18,07,31,13.80
2017,07,18,07,32,13.80
2017,07,18,07,33,13.80
2017,07,18,07,34,13.80
2017,07,18,07,35,13.90
2017,07,18,07,36,13.90
2017,07,18,07,37,14.00
2017,07,18,07,38,14.00
2017,07,18,07,39,14.10
2017,07,18,07,40,14.20
2017,07,18,07,41,14.30
2017,07,18,07,42,14.40
2017,07,18,07,43,14.50
2017,07,18,07,44,14.60
2017,07,18,07,45,14.70
2017,07,18,07,46,14.90
2017,07,18,07,47,15.00
2017,07,18,07,48,15.10
2017,07,18,07,49,15.30
2017,07,18,07,50,15.40
2017,07,18,07,51,15.50
2017,07,18,07,52,15.70
2017,07,18,07,53,15.80
2017,07,18,07,54,15.90
2017,07,18,07,55,16.00
2017,07,18,07,56,16.10
2017,07,18,07,57,16.20
2017,07,18,07,58,16.20
2017,07,18,07,59,16.20
2017,07,18,08,00,16.20
2017,07,18,08,01,16.20
2017,07,18,08,02,16.20
2017,07,18,08,03,16.20
2017,07,18,08,04,16.30
2017,07,18,08,05,16.30
2017,07,18,08,06,16.30
2017,07,18,08,07,16.30
2017,07,18,08,08,16.30
2017,07,18,08,09,16.40
2017,07,18,08,10,16.40
2017,07,18,08,11,16.50
2017,07,18,08,12,16.50
2017,07,18,08,13,16.60
2017,07,18,08,14,16.60
2017,07,18,08,15,16.70
2017,07,18,08,16,16.70
2017,07,18,08,17,16.80
2017,07,18,08,18,16.80
2017,07,18,08,19,16.80
2017,07,18,08,20,16.90
2017,07,18,08,21,16.90
2017,07,18,08,22,16.90
2017,07,18,08,23,17.00
2017,07,18,08,24,17.10
2017,07,18,08,25,17.10
2017,07,18,08,26,17.10
2017,07,18,08,27,17.10
2017,07,18,08,28,17.10
2017,07,18,08,29,17.10
2017,07,18,08,30,17.10
2017,07,18,08,31,17.10
2017,07,18,08,32,17.10
2017,07,18,08,33,17.20
2017,07,18,08,34,17.20
2017,07,18,08,35,17.30
2017,07,18,08,36,17.40
2017,07,18,08,37,17.40
2017,07,18,08,38,17.50
2017,07,18,08,39,17.60
2017,07,18,08,40,17.60
2017,07,18,08,41,17.70
2017,07,18,08,42,17.70
2017,07,18,08,43,17.70
2017,07,18,08,44,17.70
2017,07,18,08,45,17.80
2017,07,18,08,46,17.80
2017,07,18,08,47,17.80
2017,07,18,08,48,17.80
2017,07,18,08,49,17.80
2017,07,18,08,50,17.80
2017,07,18,08,51,17.90
2017,07,18,08,52,17.90
2017,07,18,08,53,18.00
2017,07,18,08,54,18.10
2017,07,18,08,55,18.20
2017,07,18,08,56,18.20
2017,07,18,08,57,18.30
2017,07,18,08,58,18.30
2017,07,18,08,59,18.40
2017,07,18,09,00,18.40
2017,07,18,09,01,18.50
2017,07,18,09,02,18.50
2017,07,18,09,03,18.60
2017,07,18,09,04,18.60
2017,07,18,09,05,18.60
2017,07,18,09,06,18.60
2017,07,18,09,07,18.60
2017,07,18,09,08,18.60
2017,07,18,09,09,18.60
2017,07,18,09,10,18.70
2017,07,18,09,11,18.70
2017,07,18,09,12,18.70
2017,07,18,09,13,18.70
2017,07,18,09,14,18.70
2017,07,18,09,15,18.80
2017,07,18,09,16,18.80
2017,07,18,09,17,18.80
2017,07,18,09,18,18.80
2017,07,18,09,19,18.70
2017,07,18,09,20,18.70
2017,07,18,09,21,18.60
2017,07,18,09,22,18.60
2017,07,18,09,23,18.60
2017,07,18,09,24,18.60
2017,07,18,09,25,18.60
2017,07,18,09,26,18.70
2017,07,18,09,27,18.70
2017,07,18,09,28,18.70
2017,07,18,09,29,18.80
2017,07,18,09,30,18.80
2017,07,18,09,31,18.80
2017,07,18,09,32,18.90
2017,07,18,09,33,18.90
2017,07,18,09,34,19.00
2017,07,18,09,35,19.10
2017,07,18,09,36,19.20
2017,07,18,09,37,19.20
2017,07,18,09,38,19.30
2017,07,18,09,39,19.30
2017,07,18,09,40,19.50
2017,07,18,09,41,19.60
2017,07,18,09,42,19.70
2017,07,18,09,43,19.70
2017,07,18,09,44,19.80
2017,07,18,09,45,19.80
2017,07,18,09,46,19.80
2017,07,18,09,47,19.80
2017,07,18,09,48,19.80
2017,07,18,09,49,19.80
2017,07,18,09,50,19.80
2017,07,18,09,51,19.80
2017,07,18,09,52,19.80
2017,07,18,09,53,19.70
2017,07,18,09,54,19.70
2017,07,18,09,55,19.70
2017,07,18,09,56,19.80
2017,07,18,09,57,19.80
2017,07,18,09,58,19.90
2017,07,18,09,59,20.00
2017,07,18,10,00,20.10
2017,07,18,10,01,20.20
2017,07,18,10,02,20.20
2017,07,18,10,03,20.20
2017,07,18,10,04,20.30
2017,07,18,10,05,20.30
2017,07,18,10,06,20.30
2017,07,18,10,07,20.30
2017,07,18,10,08,20.20
2017,07,18,10,09,20.00
2017,07,18,10,10,19.90
2017,07,18,10,11,19.80
2017,07,18,10,12,19.70
2017,07,18,10,13,19.60
2017,07,18,10,14,19.60
2017,07,18,10,15,19.50
2017,07,18,10,16,19.50
2017,07,18,10,17,19.60
2017,07,18,10,18,19.60
2017,07,18,10,19,19.70
2017,07,18,10,20,19.70
2017,07,18,10,21,19.70
2017,07,18,10,22,19.70
2017,07,18,10,23,19.60
2017,07,18,10,24,19.60
2017,07,18,10,25,19.60
2017,07,18,10,26,19.60
2017,07,18,10,27,19.60
2017,07,18,10,28,19.70
2017,07,18,10,29,19.70
2017,07,18,10,30,19.70
2017,07,18,10,31,19.70
2017,07,18,10,32,19.70
2017,07,18,10,33,19.70
2017,07,18,10,34,19.70
2017,07,18,10,35,19.70
2017,07,18,10,36,19.70
2017,07,18,10,37,19.70
2017,07,18,10,38,19.80
2017,07,18,10,39,19.90
2017,07,18,10,40,19.90
2017,07,18,10,41,20.00
2017,07,18,10,42,20.00
2017,07,18,10,43,20.10
2017,07,18,10,44,20.10
2017,07,18,10,45,20.20
2017,07,18,10,46,20.30
2017,07,18,10,47,20.40
2017,07,18,10,48,20.40
2017,07,18,10,49,20.50
2017,07,18,10,50,20.60
2017,07,18,10,51,20.70
2017,07,18,10,52,20.80
2017,07,18,10,53,20.80
2017,07,18,10,54,20.80
2017,07,18,10,55,20.80
2017,07,18,10,56,20.80
2017,07,18,10,57,20.80
2017,07,18,10,58,20.70
2017,07,18,10,59,20.70
2017,07,18,11,00,20.70
2017,07,18,11,01,20.60
2017,07,18,11,02,20.60
2017,07,18,11,03,20.60
2017,07,18,11,04,20.60
2017,07,18,11,05,20.60
2017,07,18,11,06,20.60
2017,07,18,11,07,20.70
2017,07,18,11,08,20.70
2017,07,18,11,09,20.80
2017,07,18,11,10,20.90
2017,07,18,11,11,20.90
2017,07,18,11,12,21.00
2017,07,18,11,13,21.20
2017,07,18,11,14,21.30
2017,07,18,11,15,21.30
2017,07,18,11,16,21.40
2017,07,18,11,17,21.40
2017,07,18,11,18,21.40
2017,07,18,11,19,21.40
2017,07,18,11,20,21.40
2017,07,18,11,21,21.40
2017,07,18,11,22,21.30
2017,07,18,11,23,21.20
2017,07,18,11,24,21.20
2017,07,18,11,25,21.20
2017,07,18,11,26,21.30
2017,07,18,11,27,21.30
2017,07,18,11,28,21.40
2017,07,18,11,29,21.40
2017,07,18,11,30,21.50
2017,07,18,11,31,21.50
2017,07,18,11,32,21.60
2017,07,18,11,33,21.70
2017,07,18,11,34,21.70
2017,07,18,11,35,21.80
2017,07,18,11,36,21.90
2017,07,18,11,37,21.90
2017,07,18,11,38,22.00
2017,07,18,11,39,22.00
2017,07,18,11,40,22.00
2017,07,18,11,41,22.10
2017,07,18,11,42,22.10
2017,07,18,11,43,22.10
2017,07,18,11,44,22.10
2017,07,18,11,45,22.10
2017,07,18,11,46,22.00
2017,07,18,11,47,22.00
2017,07,18,11,48,22.10
2017,07,18,11,49,22.10
2017,07,18,11,50,22.10
2017,07,18,11,51,22.20
2017,07,18,11,52,22.30
2017,07,18,11,53,22.30
2017,07,18,11,54,22.30
2017,07,18,11,55,22.30
2017,07,18,11,56,22.30
2017,07,18,11,57,22.30
2017,07,18,11,58,22.30
2017,07,18,11,59,22.20
2017,07,18,12,00,22.10
2017,07,18,12,01,22.10
2017,07,18,12,02,22.10
2017,07,18,12,03,22.10
2017,07,18,12,04,22.00
2017,07,18,12,05,22.00
2017,07,18,12,06,22.00
2017,07,18,12,07,22.00
2017,07,18,12,08,21.90
2017,07,18,12,09,22.00
2017,07,18,12,10,22.00
2017,07,18,12,11,22.00
2017,07,18,12,12,22.00
2017,07,18,12,13,22.00
2017,07,18,12,14,21.90
2017,07,18,12,15,21.90
2017,07,18,12,16,21.90
2017,07,18,12,17,21.90
2017,07,18,12,18,21.90
2017,07,18,12,19,22.00
2017,07,18,12,20,22.00
2017,07,18,12,21,22.00
2017,07,18,12,22,22.10
2017,07,18,12,23,22.10
2017,07,18,12,24,22.20
2017,07,18,12,25,22.20
2017,07,18,12,26,22.20
2017,07,18,12,27,22.10
2017,07,18,12,28,22.00
2017,07,18,12,29,21.90
2017,07,18,12,30,21.90
2017,07,18,12,31,21.90
2017,07,18,12,32,21.90
2017,07,18,12,33,22.00
2017,07,18,12,34,22.00
2017,07,18,12,35,22.10
2017,07,18,12,36,22.20
2017,07,18,12,37,22.20
2017,07,18,12,38,22.20
2017,07,18,12,39,22.20
2017,07,18,12,40,22.20
2017,07,18,12,41,22.30
2017,07,18,12,42,22.30
2017,07,18,12,43,22.30
2017,07,18,12,44,22.30
2017,07,18,12,45,22.30
2017,07,18,12,46,22.30
2017,07,18,12,47,22.20
2017,07,18,12,48,22.20
2017,07,18,12,49,22.10
2017,07,18,12,50,22.10
2017,07,18,12,51,22.20
2017,07,18,12,52,22.20
2017,07,18,12,53,22.10
2017,07,18,12,54,22.10
2017,07,18,12,55,22.00
2017,07,18,12,56,22.00
2017,07,18,12,57,22.00
2017,07,18,12,58,22.10
2017,07,18,12,59,22.20
2017,07,18,13,00,22.20
2017,07,18,13,01,22.30
2017,07,18,13,02,22.30
2017,07,18,13,03,22.30
2017,07,18,13,04,22.40
2017,07,18,13,05,22.40
2017,07,18,13,06,22.40
2017,07,18,13,07,22.50
2017,07,18,13,08,22.60
2017,07,18,13,09,22.60
2017,07,18,13,10,22.60
2017,07,18,13,11,22.70
2017,07,18,13,12,22.70
2017,07,18,13,13,22.60
2017,07,18,13,14,22.60
2017,07,18,13,15,22.60
2017,07,18,13,16,22.60
2017,07,18,13,17,22.60
2017,07,18,13,18,22.50
2017,07,18,13,19,22.40
2017,07,18,13,20,22.40
2017,07,18,13,21,22.30
2017,07,18,13,22,22.40
2017,07,18,13,23,22.40
2017,07,18,13,24,22.40
2017,07,18,13,25,22.50
2017,07,18,13,26,22.60
2017,07,18,13,27,22.70
2017,07,18,13,28,22.80
2017,07,18,13,29,22.90
2017,07,18,13,30,23.00
2017,07,18,13,31,23.00
2017,07,18,13,32,22.90
2017,07,18,13,33,22.90
2017,07,18,13,34,22.90
2017,07,18,13,35,22.90
2017,07,18,13,36,23.00
2017,07,18,13,37,23.00
2017,07,18,13,38,23.00
2017,07,18,13,39,23.00
2017,07,18,13,40,23.10
2017,07,18,13,41,23.10
2017,07,18,13,42,23.20
2017,07,18,13,43,23.20
2017,07,18,13,44,23.20
2017,07,18,13,45,23.20
2017,07,18,13,46,23.20
2017,07,18,13,47,23.20
2017,07,18,13,48,23.20
2017,07,18,13,49,23.20
2017,07,18,13,50,23.30
2017,07,18,13,51,23.30
2017,07,18,13,52,23.40
2017,07,18,13,53,23.40
2017,07,18,13,54,23.50
2017,07,18,13,55,23.70
2017,07,18,13,56,23.80
2017,07,18,13,57,23.90
2017,07,18,13,58,24.00
2017,07,18,13,59,24.10
2017,07,18,14,00,24.20
2017,07,18,14,01,24.20
2017,07,18,14,02,24.30
2017,07,18,14,03,24.30
2017,07,18,14,04,24.30
2017,07,18,14,05,24.30
2017,07,18,14,06,24.40
2017,07,18,14,07,24.40
2017,07,18,14,08,24.40
2017,07,18,14,09,24.30
2017,07,18,14,10,24.30
2017,07,18,14,11,24.20
2017,07,18,14,12,24.20
2017,07,18,14,13,24.20
2017,07,18,14,14,24.20
2017,07,18,14,15,24.20
2017,07,18,14,16,24.20
2017,07,18,14,17,24.20
2017,07,18,14,18,24.30
2017,07,18,14,19,24.30
2017,07,18,14,20,24.30
2017,07,18,14,21,24.40
2017,07,18,14,22,24.40
2017,07,18,14,23,24.40
2017,07,18,14,24,24.50
2017,07,18,14,25,24.60
2017,07,18,14,26,24.60
2017,07,18,14,27,24.70
2017,07,18,14,28,24.70
2017,07,18,14,29,24.60
2017,07,18,14,30,24.50
2017,07,18,14,31,24.50
2017,07,18,14,32,24.60
2017,07,18,14,33,24.70
2017,07,18,14,34,24.80
2017,07,18,14,35,24.90
2017,07,18,14,36,25.00
2017,07,18,14,37,25.10
2017,07,18,14,38,25.20
2017,07,18,14,39,25.20
2017,07,18,14,40,25.20
2017,07,18,14,41,25.10
2017,07,18,14,42,25.00
2017,07,18,14,43,25.00
2017,07,18,14,44,25.00
2017,07,18,14,45,25.00
2017,07,18,14,46,24.90
2017,07,18,14,47,25.00
2017,07,18,14,48,25.00
2017,07,18,14,49,25.00
2017,07,18,14,50,25.10
2017,07,18,14,51,25.20
2017,07,18,14,52,25.30
2017,07,18,14,53,25.40
2017,07,18,14,54,25.40
2017,07,18,14,55,25.40
2017,07,18,14,56,25.40
2017,07,18,14,57,25.40
2017,07,18,14,58,25.30
2017,07,18,14,59,25.20
2017,07,18,15,00,25.20
2017,07,18,15,01,25.20
2017,07,18,15,02,25.20
2017,07,18,15,03,25.10
2017,07,18,15,04,25.00
2017,07,18,15,05,24.90
2017,07,18,15,06,24.90
2017,07,18,15,07,24.90
2017,07,18,15,08,25.00
2017,07,18,15,09,25.00
2017,07,18,15,10,25.10
2017,07,18,15,11,25.10
2017,07,18,15,12,25.10
2017,07,18,15,13,25.10
2017,07,18,15,14,25.20
2017,07,18,15,15,25.30
2017,07,18,15,16,25.30
2017,07,18,15,17,25.30
2017,07,18,15,18,25.30
2017,07,18,15,19,25.20
2017,07,18,15,20,25.30
2017,07,18,15,21,25.40
2017,07,18,15,22,25.50
2017,07,18,15,23,25.60
2017,07,18,15,24,25.70
2017,07,18,15,25,25.70
2017,07,18,15,26,25.70
2017,07,18,15,27,25.60
2017,07,18,15,28,25.50
2017,07,18,15,29,25.40
2017,07,18,15,30,25.40
2017,07,18,15,31,25.30
2017,07,18,15,32,25.30
2017,07,18,15,33,25.30
2017,07,18,15,34,25.20
2017,07,18,15,35,25.20
2017,07,18,15,36,25.20
2017,07,18,15,37,25.20
2017,07,18,15,38,25.20
2017,07,18,15,39,25.20
2017,07,18,15,40,25.20
2017,07,18,15,41,25.20
2017,07,18,15,42,25.20
2017,07,18,15,43,25.20
2017,07,18,15,44,25.20
2017,07,18,15,45,25.20
2017,07,18,15,46,25.20
2017,07,18,15,47,25.20
2017,07,18,15,48,25.10
2017,07,18,15,49,25.10
2017,07,18,15,50,25.10
2017,07,18,15,51,25.10
2017,07,18,15,52,25.10
2017,07,18,15,53,25.10
2017,07,18,15,54,25.20
2017,07,18,15,55,25.30
2017,07,18,15,56,25.30
2017,07,18,15,57,25.30
2017,07,18,15,58,25.30
2017,07,18,15,59,25.30
2017,07,18,16,00,25.30
2017,07,18,16,01,25.30
2017,07,18,16,02,25.30
2017,07,18,16,03,25.40
2017,07,18,16,04,25.50
2017,07,18,16,05,25.60
2017,07,18,16,06,25.60
2017,07,18,16,07,25.60
2017,07,18,16,08,25.60
2017,07,18,16,09,25.70
2017,07,18,16,10,25.70
2017,07,18,16,11,25.70
2017,07,18,16,12,25.70
2017,07,18,16,13,25.70
2017,07,18,16,14,25.60
2017,07,18,16,15,25.60
2017,07,18,16,16,25.50
2017,07,18,16,17,25.40
2017,07,18,16,18,25.40
2017,07,18,16,19,25.40
2017,07,18,16,20,25.30
2017,07,18,16,21,25.30
2017,07,18,16,22,25.30
2017,07,18,16,23,25.40
2017,07,18,16,24,25.40
2017,07,18,16,25,25.40
2017,07,18,16,26,25.40
2017,07,18,16,27,25.40
2017,07,18,16,28,25.40
2017,07,18,16,29,25.50
2017,07,18,16,30,25.60
2017,07,18,16,31,25.60
2017,07,18,16,32,25.70
2017,07,18,16,33,25.70
2017,07,18,16,34,25.70
2017,07,18,16,35,25.60
2017,07,18,16,36,25.60
2017,07,18,16,37,25.50
2017,07,18,16,38,25.40
2017,07,18,16,39,25.40
2017,07,18,16,40,25.40
2017,07,18,16,41,25.50
2017,07,18,16,42,25.50
2017,07,18,16,43,25.60
2017,07,18,16,44,25.50
2017,07,18,16,45,25.50
2017,07,18,16,46,25.50
2017,07,18,16,47,25.40
2017,07,18,16,48,25.40
2017,07,18,16,49,25.40
2017,07,18,16,50,25.40
2017,07,18,16,51,25.50
2017,07,18,16,52,25.60
2017,07,18,16,53,25.60
2017,07,18,16,54,25.70
2017,07,18,16,55,25.70
2017,07,18,16,56,25.70
2017,07,18,16,57,25.70
2017,07,18,16,58,25.70
2017,07,18,16,59,25.60
2017,07,18,17,00,25.60
2017,07,18,17,01,25.60
2017,07,18,17,02,25.70
2017,07,18,17,03,25.70
2017,07,18,17,04,25.80
2017,07,18,17,05,25.90
2017,07,18,17,06,25.90
2017,07,18,17,07,25.90
2017,07,18,17,08,25.90
2017,07,18,17,09,25.90
2017,07,18,17,10,26.00
2017,07,18,17,11,26.00
2017,07,18,17,12,26.00
2017,07,18,17,13,26.00
2017,07,18,17,14,26.00
2017,07,18,17,15,26.10
2017,07,18,17,16,26.20
2017,07,18,17,17,26.30
2017,07,18,17,18,26.30
2017,07,18,17,19,26.30